Showing default

DUMMY SAT, 40073

Orbit data source: Space-Track

DUMMY SAT, 40073 is a payload satellite owned by DND DSD (CIS) in SSO that was launched on Tue, 08 Jul 2014 UTC via a SOYUZ-2-1B launch vehicle from the Tyuratam Missile And Space Complex (TTMTR). Payload-class satellites include a variety of spacecraft equipped with specific instruments for various scientific and technological missions. These include communications satellites like Starlink; space stations such as the ISS; scientific satellites like the Hubble; Earth observation satellites from companies like Planet Labs, Umbra, and HawkEye 360; GPS; miniature CubeSats for education and research; and military/defense satellites.

Loading next visibility...
Identifier
40073, 2014-037E
Orbit
SSO
Country
Flag of CISCIS
Related business
Manufacturer
ComDev
Mission
Non-operational Civil Technology
Bus & Motor
Unknown
Mass
75 kg wet, 75 kg dry
Launch date (UTC)
2014-07-08 (11 years ago)
Launch vehicle
SOYUZ-2-1B
Launch site
Tyuratam Missile And Space Complex (TTMTR)
Object type
Payload
Rocket body
Debris
Shape & HBR
Box, 0.4 m
Radar Cross Section
0.800 m², Medium (>0.1 m² and < 1m²)

Expand to show TLE details & history
Last TLE update: 8 hours ago

TLE from 8 hours ago
0 DUMMY SAT
1 40073U 14037E   25353.81506428  .00000319  00000-0  46632-4 0  9999
2 40073  98.3530 291.3352 0005997 155.7874 204.3621 14.82847123618852
Epoch: 2025-12-19T19:33Z
TLE epoch observation values (Epoch: 2025-12-19T19:33:41.553Z)
Latitude
-0.00004°
Longitude
-90.73874°
Altitude
627.187 km
Speed
7.543 km/s
True Right ascension
19h 25m 20s
True Declination
0° 00' 00"
Sunlit
Object was in daylight at epoch
Visualization orbit readout
Latitude
Unknown
Longitude
Unknown
Altitude
Unknown
Speed
Unknown
Apparent Right ascension
Unknown
Apparent Declination
Unknown
Sunlit
N/A
Visualization observer readout
Local Sidereal Time
02:14:02
Azimuth
Unknown
Elevation
Unknown
Doppler factor
Unknown
Orbital elements
Apogee altitude
621.605 km
Perigee altitude
613.214 km
Semi-major axis
6,995.546 km
Eccentricity
0.0006
Inclination
98.353°
RAAN
291.3352°
Arg. of periapsis
155.7874°
True anomaly
204.33377°
Mean anomaly
204.3621°
Eccentric anomaly
204.34793°
Mean motion
3.70946 °/min
Orbital period
97.05 mins
BSTAR
0.000046632
Loading maneuver chart data...
Computing Atmospheric mass density...
Loading historical data...
Loading historical data...
Loading historical data...
Loading historical data...
Loading historical data...
Loading historical data...
Loading historical data...

Documentation

Showing up to 5 results
|